Weather History for Lufkin, TX

Change the Weather History Date:

Tuesday, November 1, 2011

  Actual Average Record
Temperature  
Mean Temperature 60 °F 63 °F  
Max Temperature 79 °F 75 °F 90 °F (2010)
Min Temperature 40 °F 51 °F 28 °F (1993)
Degree Days  
Heating Degree Days 5 4  
Month to date heating degree days 5 4  
Since 1 July heating degree days 70 70  
Cooling Degree Days 0 2  
Month to date cooling degree days 0 2  
Year to date cooling degree days 3347 2546  
Growing Degree Days 10 (Base 50)    
Moisture  
Dew Point 46 °F    
Average Humidity 63    
Maximum Humidity 96    
Minimum Humidity 29    
Precipitation  
Precipitation 0.00 in 0.17 in 3.35 in (2004)
Month to date precipitation 0.00 0.17  
Year to date precipitation 23.17 39.67  
Snow  
Snow 0.00 in - - ()
Month to date snowfall 0.0  
Since 1 July snowfall 0.0  
Since 1 September snowfall 0.0  
Snow Depth 0.00 in    
Sea Level Pressure  
Sea Level Pressure 30.14 in    
Wind  
Wind Speed 5 mph (SE)    
Max Wind Speed 15 mph    
Max Gust Speed 20 mph    
Visibility 10 miles    
Events      
T = Trace of Precipitation, MM = Missing Value Source: NWS Daily Summary

Daily Weather History Graph

Daily Weather History Graph

Search for Another Location

Airport:

Trip Planner

Search our weather history database for the weather conditions in past years. The results will help you decide how hot, cold, wet, or windy it might be!

Date:

Astronomy

Nov. 01, 2011 Rise Set
Actual Time 7:34 AM CDT 6:30 PM CDT
Civil Twilight 7:09 AM CDT 6:55 PM CDT
Nautical Twilight 6:40 AM CDT 7:24 PM CDT
Astronomical Twilight 6:12 AM CDT 7:52 PM CDT
Moon 1:17 PM CDT (11/1) No Moon Set
Length of Visible Light 11h 46m
Length of Day
10h 56m
Waxing Crescent, 40% of the Moon is Illuminated
Nov 1
Waxing Crescent
Nov 2
First Quarter
Nov 10
Full
Nov 18
Last Quarter
Nov 25
New

Hourly Weather History & Observations

Time (CDT) Temp. Windchill Dew Point Humidity Pressure Visibility Wind Dir Wind Speed Gust Speed Precip Events Conditions
12:53 AM 51.1 °F - 42.1 °F 71% 30.17 in 10.0 mi SE 3.5 mph - N/A   Clear
1:53 AM 48.0 °F - 43.0 °F 83% 30.16 in 10.0 mi East 3.5 mph - N/A   Clear
2:53 AM 46.9 °F - 43.0 °F 86% 30.17 in 10.0 mi Calm Calm - N/A   Clear
3:53 AM 46.0 °F - 42.1 °F 86% 30.17 in 10.0 mi Calm Calm - N/A   Clear
4:53 AM 43.0 °F 41.3 °F 41.0 °F 93% 30.16 in 10.0 mi East 3.5 mph - N/A   Clear
5:53 AM 43.0 °F - 41.0 °F 93% 30.17 in 7.0 mi Calm Calm - N/A   Clear
6:53 AM 41.0 °F 39.0 °F 39.2 °F 93% 30.17 in 9.0 mi East 3.5 mph - N/A   Clear
7:53 AM 42.8 °F - 41.0 °F 93% 30.17 in 8.0 mi Calm Calm - N/A   Clear
8:53 AM 52.0 °F - 46.9 °F 83% 30.18 in 10.0 mi Calm Calm - N/A   Clear
9:53 AM 60.1 °F - 48.9 °F 67% 30.20 in 10.0 mi SE 3.5 mph - N/A   Clear
10:53 AM 69.1 °F - 46.9 °F 45% 30.19 in 10.0 mi SE 10.4 mph - N/A   Clear
11:53 AM 72.0 °F - 45.0 °F 38% 30.19 in 10.0 mi SE 11.5 mph - N/A   Clear
12:53 PM 73.9 °F - 45.0 °F 35% 30.16 in 10.0 mi ESE 8.1 mph - N/A   Clear
2:53 PM 78.1 °F - 44.1 °F 30% 30.11 in 10.0 mi SSE 11.5 mph 16.1 mph N/A   Clear
3:53 PM 78.1 °F - 46.0 °F 32% 30.09 in 10.0 mi SSE 8.1 mph - N/A   Clear
4:53 PM 77.0 °F - 48.0 °F 36% 30.09 in 10.0 mi SSE 10.4 mph - N/A   Clear
5:53 PM 75.0 °F - 48.9 °F 40% 30.08 in 10.0 mi SE 11.5 mph - N/A   Clear
6:53 PM 68.0 °F - 48.9 °F 50% 30.08 in 10.0 mi SE 4.6 mph - N/A   Clear
7:53 PM 64.9 °F - 50.0 °F 58% 30.09 in 10.0 mi SSE 5.8 mph - N/A   Clear
8:53 PM 66.0 °F - 52.0 °F 60% 30.10 in 10.0 mi SSE 9.2 mph - N/A   Clear
9:53 PM 63.0 °F - 50.0 °F 63% 30.12 in 10.0 mi SSE 8.1 mph - N/A   Clear
10:53 PM 57.2 °F - 50.0 °F 77% 30.12 in 10.0 mi SSE 4.6 mph - N/A   Clear
11:53 PM 57.0 °F - 48.9 °F 74% 30.11 in 10.0 mi ESE 3.5 mph - N/A   Clear